THY1672 EDDK-LTFM

Flight info

Callsign THY1672
Flight time 2h 36m
Altitude 35000
Route KUMIK1R KUMIK L603 TESGA DCT ESATI DCT OSBIT DCT TENLO DCT LAMSI DCT SITNI DCT SASAL DCT SOGMO DCT BABIT DCT ESIRI DCT ETIDA T390 RILEX
Aircraft A321/M-SDE3FGHIRWY/LB1

Departure

Time 2026-05-07 07:12
Airport Cologne Bonn Airport (EDDK)

Arrival

Time 2026-05-07 09:48
Airport İstanbul Airport (LTFM)
Time Latitude Longitude Altitude Speed Heading
2026-05-07 06:47 50.87733 7.12395 234 ft 0 kts 288°
2026-05-07 06:58 50.87732 7.12398 233 ft 2 kts 288°
2026-05-07 06:58 50.87724 7.12437 233 ft 4 kts 289°
2026-05-07 06:58 50.87717 7.12470 234 ft 4 kts 296°
2026-05-07 06:58 50.87701 7.12500 237 ft 4 kts 340°
2026-05-07 06:59 50.87676 7.12503 232 ft 4 kts 16°
2026-05-07 06:59 50.87670 7.12500 236 ft 0 kts 18°
2026-05-07 07:02 50.87684 7.12508 233 ft 4 kts 18°
2026-05-07 07:02 50.87723 7.12527 232 ft 7 kts 18°
2026-05-07 07:02 50.87763 7.12597 232 ft 11 kts 69°
2026-05-07 07:02 50.87752 7.12722 234 ft 13 kts 125°
2026-05-07 07:03 50.87676 7.12834 232 ft 16 kts 137°
2026-05-07 07:03 50.87585 7.12968 232 ft 19 kts 137°
2026-05-07 07:03 50.87483 7.13116 232 ft 20 kts 137°
2026-05-07 07:03 50.87376 7.13270 232 ft 21 kts 137°
2026-05-07 07:04 50.87267 7.13427 234 ft 21 kts 137°
2026-05-07 07:04 50.87164 7.13576 237 ft 19 kts 137°
2026-05-07 07:04 50.87068 7.13715 241 ft 18 kts 137°
2026-05-07 07:04 50.86980 7.13842 244 ft 16 kts 137°
2026-05-07 07:05 50.86908 7.13947 251 ft 12 kts 137°
2026-05-07 07:05 50.86858 7.14020 255 ft 9 kts 137°
2026-05-07 07:05 50.86811 7.14088 255 ft 10 kts 137°
2026-05-07 07:05 50.86751 7.14134 255 ft 10 kts 167°
2026-05-07 07:06 50.86701 7.14185 258 ft 7 kts 137°
2026-05-07 07:06 50.86660 7.14244 260 ft 11 kts 137°
2026-05-07 07:06 50.86587 7.14351 262 ft 18 kts 137°
2026-05-07 07:06 50.86482 7.14502 267 ft 20 kts 137°
2026-05-07 07:07 50.86386 7.14642 273 ft 18 kts 137°
2026-05-07 07:07 50.86304 7.14761 278 ft 15 kts 137°
2026-05-07 07:07 50.86233 7.14865 282 ft 13 kts 137°
2026-05-07 07:07 50.86173 7.14952 285 ft 11 kts 137°
2026-05-07 07:08 50.86113 7.15038 287 ft 15 kts 137°
2026-05-07 07:08 50.86014 7.15182 294 ft 21 kts 137°
2026-05-07 07:08 50.85911 7.15331 294 ft 19 kts 137°
2026-05-07 07:08 50.85816 7.15470 300 ft 18 kts 137°
2026-05-07 07:09 50.85727 7.15600 300 ft 17 kts 138°
2026-05-07 07:09 50.85643 7.15718 305 ft 16 kts 138°
2026-05-07 07:09 50.85565 7.15829 306 ft 14 kts 137°
2026-05-07 07:09 50.85494 7.15931 308 ft 14 kts 137°
2026-05-07 07:10 50.85422 7.16036 308 ft 15 kts 137°
2026-05-07 07:10 50.85353 7.16157 308 ft 15 kts 120°
2026-05-07 07:10 50.85338 7.16320 308 ft 16 kts 78°
2026-05-07 07:10 50.85395 7.16465 308 ft 16 kts 34°
2026-05-07 07:11 50.85498 7.16507 308 ft 15 kts 351°
2026-05-07 07:11 50.85603 7.16443 309 ft 19 kts 321°
2026-05-07 07:11 50.85810 7.16141 306 ft 74 kts 318°
2026-05-07 07:11 50.86358 7.15354 286 ft 137 kts 317°
2026-05-07 07:12 50.87186 7.14149 316 ft 180 kts 319°
2026-05-07 07:12 50.88113 7.12817 993 ft 179 kts 318°
2026-05-07 07:12 50.89044 7.11509 1784 ft 177 kts 321°
2026-05-07 07:12 50.90175 7.10826 2288 ft 185 kts
2026-05-07 07:13 50.91467 7.11445 2555 ft 203 kts 23°
2026-05-07 07:13 50.92727 7.12497 3010 ft 206 kts 29°
2026-05-07 07:13 50.93740 7.14136 3478 ft 216 kts 56°
2026-05-07 07:13 50.94385 7.16421 3742 ft 236 kts 64°
2026-05-07 07:14 50.95090 7.18870 4086 ft 253 kts 62°
2026-05-07 07:14 50.95870 7.21412 4740 ft 259 kts 61°
2026-05-07 07:14 50.96675 7.23987 5435 ft 262 kts 61°
2026-05-07 07:14 50.97496 7.26585 6152 ft 265 kts 61°
2026-05-07 07:15 50.98330 7.29209 6840 ft 268 kts 60°
2026-05-07 07:15 50.99174 7.31866 7507 ft 271 kts 61°
2026-05-07 07:15 51.00021 7.34552 8159 ft 274 kts 61°
2026-05-07 07:15 51.00880 7.37275 8833 ft 278 kts 62°
2026-05-07 07:16 51.01539 7.40182 9487 ft 283 kts 77°
2026-05-07 07:16 51.01686 7.43326 10107 ft 289 kts 92°
2026-05-07 07:16 51.01277 7.46479 10630 ft 298 kts 105°
2026-05-07 07:16 51.00635 7.49734 10762 ft 320 kts 106°
2026-05-07 07:17 50.99958 7.53170 10882 ft 340 kts 106°
2026-05-07 07:17 50.99239 7.56828 11130 ft 353 kts 106°
2026-05-07 07:17 50.98499 7.60577 11645 ft 358 kts 106°
2026-05-07 07:17 50.97752 7.64363 12183 ft 362 kts 106°
2026-05-07 07:18 50.96997 7.68197 12764 ft 365 kts 106°
2026-05-07 07:18 50.96231 7.72058 13338 ft 369 kts 107°
2026-05-07 07:18 50.95454 7.75958 13842 ft 373 kts 106°
2026-05-07 07:18 50.94654 7.79904 14308 ft 377 kts 109°
2026-05-07 07:19 50.93543 7.83683 14806 ft 380 kts 120°
2026-05-07 07:19 50.92104 7.87208 15323 ft 382 kts 123°
2026-05-07 07:19 50.90628 7.90730 15808 ft 385 kts 123°
2026-05-07 07:19 50.89136 7.94274 16313 ft 388 kts 123°
2026-05-07 07:20 50.87637 7.97839 16794 ft 391 kts 123°
2026-05-07 07:20 50.86126 8.01435 17329 ft 393 kts 123°
2026-05-07 07:20 50.84613 8.05043 17839 ft 395 kts 123°
2026-05-07 07:20 50.83092 8.08674 18308 ft 397 kts 123°
2026-05-07 07:21 50.81556 8.12330 18695 ft 400 kts 123°
2026-05-07 07:21 50.80006 8.16010 19087 ft 403 kts 123°
2026-05-07 07:21 50.78449 8.19705 19481 ft 405 kts 123°
2026-05-07 07:21 50.76882 8.23421 19906 ft 407 kts 123°
2026-05-07 07:22 50.75307 8.27143 20356 ft 408 kts 123°
2026-05-07 07:22 50.73720 8.30876 20732 ft 411 kts 123°
2026-05-07 07:22 50.72121 8.34633 21120 ft 414 kts 123°
2026-05-07 07:22 50.70370 8.38257 21462 ft 417 kts 132°
2026-05-07 07:23 50.68250 8.41387 21863 ft 418 kts 142°
2026-05-07 07:23 50.65830 8.43912 22324 ft 418 kts 152°
2026-05-07 07:23 50.63261 8.46079 22785 ft 419 kts 152°
2026-05-07 07:23 50.60688 8.48251 23161 ft 421 kts 152°
2026-05-07 07:24 50.58137 8.50402 23534 ft 423 kts 152°
2026-05-07 07:24 50.55532 8.52595 23856 ft 425 kts 152°
2026-05-07 07:24 50.52917 8.54797 24160 ft 428 kts 152°
2026-05-07 07:24 50.50287 8.57010 24474 ft 430 kts 152°
2026-05-07 07:25 50.45045 8.61609 25091 ft 434 kts 145°
2026-05-07 07:25 50.42690 8.64581 25413 ft 436 kts 136°
2026-05-07 07:25 50.40507 8.67893 25687 ft 438 kts 136°
2026-05-07 07:26 50.38312 8.71218 26004 ft 439 kts 136°
2026-05-07 07:26 50.36105 8.74547 26314 ft 441 kts 136°
2026-05-07 07:26 50.33888 8.77880 26648 ft 442 kts 136°
2026-05-07 07:26 50.31656 8.81225 26914 ft 445 kts 136°
2026-05-07 07:27 50.29417 8.84578 27196 ft 447 kts 136°
2026-05-07 07:27 50.27159 8.87962 27448 ft 450 kts 136°
2026-05-07 07:27 50.24889 8.91357 27693 ft 453 kts 136°
2026-05-07 07:27 50.22605 8.94766 27985 ft 455 kts 136°
2026-05-07 07:28 50.20319 8.98177 28332 ft 455 kts 136°
2026-05-07 07:28 50.18023 9.01604 28578 ft 457 kts 136°
2026-05-07 07:28 50.15719 9.05036 28870 ft 458 kts 136°
2026-05-07 07:28 50.13413 9.08463 29160 ft 458 kts 136°
2026-05-07 07:29 50.11164 9.11999 29380 ft 460 kts 130°
2026-05-07 07:29 50.09298 9.15956 29582 ft 460 kts 120°
2026-05-07 07:29 50.07863 9.20406 29866 ft 459 kts 110°
2026-05-07 07:29 50.07175 9.23583 30051 ft 458 kts 104°
2026-05-07 07:30 50.06506 9.30038 30373 ft 456 kts 91°
2026-05-07 07:30 50.06530 9.34964 30576 ft 456 kts 87°
2026-05-07 07:30 50.06583 9.38300 30716 ft 456 kts 88°
2026-05-07 07:30 50.06667 9.44832 31010 ft 457 kts 88°
2026-05-07 07:31 50.06721 9.49781 31206 ft 457 kts 88°
2026-05-07 07:31 50.06755 9.53063 31360 ft 457 kts 89°
2026-05-07 07:31 50.06805 9.58014 31560 ft 458 kts 89°
2026-05-07 07:31 50.06853 9.62975 31773 ft 458 kts 89°
2026-05-07 07:32 50.06900 9.67932 31988 ft 459 kts 89°
2026-05-07 07:32 50.06763 9.72896 32159 ft 459 kts 98°
2026-05-07 07:32 50.06129 9.77752 32378 ft 458 kts 107°
2026-05-07 07:32 50.05019 9.82387 32610 ft 456 kts 116°
2026-05-07 07:33 50.03476 9.86683 32844 ft 455 kts 124°
2026-05-07 07:33 50.01737 9.90783 33093 ft 454 kts 124°
2026-05-07 07:33 49.99999 9.94875 33305 ft 453 kts 124°
2026-05-07 07:33 49.98267 9.98960 33529 ft 453 kts 124°
2026-05-07 07:34 49.96533 10.03048 33723 ft 453 kts 125°
2026-05-07 07:34 49.94803 10.07122 33942 ft 452 kts 125°
2026-05-07 07:34 49.93071 10.11192 34129 ft 451 kts 126°
2026-05-07 07:34 49.91343 10.15244 34296 ft 451 kts 126°
2026-05-07 07:35 49.89607 10.19306 34455 ft 451 kts 126°
2026-05-07 07:35 49.87874 10.23363 34640 ft 452 kts 126°
2026-05-07 07:35 49.86136 10.27427 34820 ft 452 kts 126°
2026-05-07 07:35 49.84395 10.31485 34926 ft 452 kts 126°
2026-05-07 07:36 49.82653 10.35531 34951 ft 452 kts 126°
2026-05-07 07:36 49.79158 10.43627 34952 ft 454 kts 126°
2026-05-07 07:37 49.75618 10.51803 34958 ft 461 kts 126°
2026-05-07 07:37 49.72030 10.60085 34957 ft 466 kts 126°
2026-05-07 07:38 49.68408 10.68416 34954 ft 468 kts 126°
2026-05-07 07:38 49.64767 10.76760 34950 ft 468 kts 126°
2026-05-07 07:39 49.61125 10.85096 34941 ft 469 kts 127°
2026-05-07 07:39 49.57493 10.93365 34955 ft 469 kts 127°
2026-05-07 07:40 49.53823 11.01674 34977 ft 469 kts 127°
2026-05-07 07:40 49.50634 11.10451 34978 ft 472 kts 120°
2026-05-07 07:41 49.47688 11.19471 34976 ft 472 kts 120°
2026-05-07 07:41 49.44722 11.28464 34967 ft 472 kts 121°
2026-05-07 07:42 49.41748 11.37439 34979 ft 471 kts 121°
2026-05-07 07:42 49.38777 11.46392 34980 ft 471 kts 121°
2026-05-07 07:43 49.35810 11.55334 34984 ft 470 kts 121°
2026-05-07 07:43 49.32830 11.64260 34974 ft 470 kts 121°
2026-05-07 07:44 49.29843 11.73151 34995 ft 468 kts 121°
2026-05-07 07:44 49.26872 11.81978 35006 ft 465 kts 121°
2026-05-07 07:45 49.23928 11.90698 34997 ft 463 kts 121°
2026-05-07 07:45 49.20966 11.99440 34992 ft 462 kts 122°
2026-05-07 07:46 49.18008 12.08160 34980 ft 461 kts 123°
2026-05-07 07:46 49.15041 12.16845 34989 ft 461 kts 123°
2026-05-07 07:47 49.12069 12.25517 34997 ft 461 kts 123°
2026-05-07 07:47 49.09100 12.34176 35002 ft 460 kts 123°
2026-05-07 07:48 49.06116 12.42813 34968 ft 460 kts 123°
2026-05-07 07:48 49.03128 12.51446 34981 ft 461 kts 124°
2026-05-07 07:49 49.00132 12.60072 34994 ft 461 kts 124°
2026-05-07 07:49 48.97125 12.68699 34999 ft 461 kts 124°
2026-05-07 07:50 48.94128 12.77315 35001 ft 461 kts 124°
2026-05-07 07:50 48.91114 12.85921 35001 ft 461 kts 124°
2026-05-07 07:51 48.88089 12.94523 35008 ft 461 kts 124°
2026-05-07 07:51 48.85057 13.03109 35009 ft 461 kts 124°
2026-05-07 07:52 48.82021 13.11677 35008 ft 461 kts 124°
2026-05-07 07:52 48.79008 13.20184 34984 ft 461 kts 125°
2026-05-07 07:53 48.75966 13.28729 34997 ft 461 kts 125°
2026-05-07 07:53 48.72908 13.37263 35000 ft 460 kts 125°
2026-05-07 07:54 48.69848 13.45781 35011 ft 460 kts 125°
2026-05-07 07:54 48.66783 13.54296 35013 ft 460 kts 125°
2026-05-07 07:55 48.63416 13.62437 34997 ft 454 kts 132°
2026-05-07 07:55 48.59765 13.70225 35007 ft 454 kts 132°
2026-05-07 07:56 48.56108 13.77989 35014 ft 454 kts 133°
2026-05-07 07:56 48.52442 13.85741 35008 ft 454 kts 133°
2026-05-07 07:57 48.48776 13.93498 35017 ft 454 kts 133°
2026-05-07 07:57 48.45107 14.01242 35005 ft 454 kts 133°
2026-05-07 07:58 48.41423 14.08968 34995 ft 454 kts 133°
2026-05-07 07:58 48.37734 14.16705 35004 ft 455 kts 133°
2026-05-07 07:59 48.34038 14.24425 35017 ft 455 kts 133°
2026-05-07 07:59 48.30336 14.32125 34993 ft 455 kts 134°
2026-05-07 08:00 48.26626 14.39826 35006 ft 455 kts 134°
2026-05-07 08:00 48.22916 14.47509 35014 ft 455 kts 134°
2026-05-07 08:01 48.19229 14.55141 35019 ft 455 kts 134°
2026-05-07 08:01 48.15507 14.62807 35019 ft 455 kts 134°
2026-05-07 08:02 48.11780 14.70446 34998 ft 454 kts 134°
2026-05-07 08:02 48.08055 14.78073 35020 ft 454 kts 134°
2026-05-07 08:03 48.04342 14.85691 35019 ft 454 kts 134°
2026-05-07 08:03 48.00757 14.93469 35024 ft 455 kts 132°
2026-05-07 08:04 47.97241 15.01324 34981 ft 455 kts 132°
2026-05-07 08:04 47.93691 15.09153 34982 ft 454 kts 133°
2026-05-07 08:05 47.90107 15.16930 34993 ft 455 kts 133°
2026-05-07 08:05 47.86507 15.24702 35006 ft 456 kts 133°
2026-05-07 08:06 47.82906 15.32463 35005 ft 456 kts 133°
2026-05-07 08:06 47.79307 15.40227 34971 ft 456 kts 133°
2026-05-07 08:07 47.75723 15.47932 34986 ft 456 kts 133°
2026-05-07 08:07 47.72108 15.55676 34993 ft 456 kts 133°
2026-05-07 08:08 47.68487 15.63402 34990 ft 456 kts 133°
2026-05-07 08:08 47.64857 15.71134 34946 ft 457 kts 133°
2026-05-07 08:09 47.61221 15.78857 34970 ft 456 kts 133°
2026-05-07 08:09 47.57588 15.86544 34983 ft 456 kts 133°
2026-05-07 08:10 47.53947 15.94227 34981 ft 455 kts 133°
2026-05-07 08:10 47.50312 16.01889 34983 ft 455 kts 133°
2026-05-07 08:11 47.46669 16.09555 34945 ft 456 kts 133°
2026-05-07 08:11 47.43006 16.17208 34961 ft 456 kts 133°
2026-05-07 08:12 47.39342 16.24866 34972 ft 457 kts 133°
2026-05-07 08:12 47.35691 16.32467 34980 ft 457 kts 133°
2026-05-07 08:13 47.31985 16.40160 34983 ft 457 kts 133°
2026-05-07 08:13 47.28322 16.47747 34983 ft 457 kts 134°
2026-05-07 08:14 47.24460 16.55120 34986 ft 453 kts 137°
2026-05-07 08:14 47.20446 16.62265 34977 ft 453 kts 137°
2026-05-07 08:15 47.16429 16.69399 34983 ft 453 kts 137°
2026-05-07 08:15 47.12451 16.76611 34956 ft 455 kts 136°
2026-05-07 08:16 47.08477 16.83850 34959 ft 456 kts 136°
2026-05-07 08:16 47.04489 16.91087 34974 ft 457 kts 136°
2026-05-07 08:17 47.00487 16.98309 34983 ft 457 kts 136°
2026-05-07 08:17 46.96467 17.05526 34954 ft 458 kts 136°
2026-05-07 08:18 46.92425 17.12769 34955 ft 461 kts 136°
2026-05-07 08:18 46.88359 17.20047 34965 ft 463 kts 136°
2026-05-07 08:19 46.84275 17.27325 34978 ft 464 kts 136°
2026-05-07 08:19 46.80171 17.34607 34990 ft 465 kts 136°
2026-05-07 08:20 46.76757 17.40668 34966 ft 465 kts 136°
2026-05-07 08:20 46.71964 17.49153 34979 ft 467 kts 136°
2026-05-07 08:21 46.67830 17.56444 35005 ft 467 kts 136°
2026-05-07 08:21 46.64388 17.62503 35006 ft 467 kts 136°
2026-05-07 08:22 46.60246 17.69786 34980 ft 468 kts 135°
2026-05-07 08:22 46.56204 17.77245 34999 ft 470 kts 134°
2026-05-07 08:23 46.52245 17.84783 35008 ft 469 kts 134°
2026-05-07 08:23 46.48259 17.92299 35013 ft 469 kts 134°
2026-05-07 08:24 46.44246 17.99760 34995 ft 469 kts 134°
2026-05-07 08:24 46.40211 18.07197 35006 ft 469 kts 134°
2026-05-07 08:25 46.36207 18.14580 35013 ft 470 kts 134°
2026-05-07 08:25 46.32175 18.22020 35020 ft 469 kts 134°
2026-05-07 08:26 46.26127 18.33147 35016 ft 469 kts 135°
2026-05-07 08:26 46.22076 18.40542 35024 ft 469 kts 135°
2026-05-07 08:27 46.18022 18.47932 35034 ft 470 kts 135°
2026-05-07 08:27 46.13965 18.55316 35033 ft 469 kts 135°
2026-05-07 08:28 46.09906 18.62691 35007 ft 470 kts 135°
2026-05-07 08:28 46.05868 18.70014 35018 ft 469 kts 135°
2026-05-07 08:29 46.01798 18.77368 35031 ft 470 kts 135°
2026-05-07 08:29 45.97723 18.84704 35036 ft 469 kts 135°
2026-05-07 08:30 45.93643 18.92023 35023 ft 469 kts 134°
2026-05-07 08:30 45.89471 18.99193 35028 ft 467 kts 137°
2026-05-07 08:31 45.85167 19.06179 35036 ft 467 kts 137°
2026-05-07 08:31 45.80845 19.13133 35037 ft 467 kts 137°
2026-05-07 08:32 45.76549 19.20133 35027 ft 468 kts 137°
2026-05-07 08:32 45.72268 19.27153 35025 ft 468 kts 136°
2026-05-07 08:33 45.67980 19.34166 35038 ft 468 kts 137°
2026-05-07 08:33 45.63679 19.41149 35044 ft 468 kts 137°
2026-05-07 08:34 45.59399 19.48073 35055 ft 468 kts 137°
2026-05-07 08:34 45.55090 19.55034 35057 ft 468 kts 137°
2026-05-07 08:35 45.50777 19.61992 35054 ft 468 kts 137°
2026-05-07 08:35 45.46460 19.68943 35052 ft 468 kts 137°
2026-05-07 08:36 45.42146 19.75872 35057 ft 468 kts 137°
2026-05-07 08:36 45.37818 19.82794 35036 ft 469 kts 137°
2026-05-07 08:37 45.33473 19.89726 35042 ft 470 kts 137°
2026-05-07 08:37 45.29117 19.96654 35051 ft 470 kts 137°
2026-05-07 08:38 45.24754 20.03579 35046 ft 470 kts 137°
2026-05-07 08:38 45.20387 20.10494 35044 ft 471 kts 137°
2026-05-07 08:39 45.16009 20.17405 35053 ft 471 kts 137°
2026-05-07 08:39 45.11634 20.24309 35057 ft 471 kts 137°
2026-05-07 08:40 45.07258 20.31195 35072 ft 471 kts 137°
2026-05-07 08:40 45.02871 20.38076 35052 ft 471 kts 137°
2026-05-07 08:41 44.98478 20.44950 35060 ft 471 kts 137°
2026-05-07 08:41 44.94105 20.51769 35066 ft 472 kts 137°
2026-05-07 08:42 44.89692 20.58635 35071 ft 472 kts 137°
2026-05-07 08:42 44.85278 20.65498 35056 ft 473 kts 137°
2026-05-07 08:43 44.80851 20.72356 35060 ft 473 kts 137°
2026-05-07 08:43 44.76412 20.79209 35067 ft 474 kts 137°
2026-05-07 08:44 44.71972 20.86051 35068 ft 474 kts 137°
2026-05-07 08:44 44.67523 20.92886 35052 ft 474 kts 137°
2026-05-07 08:45 44.63063 20.99732 35058 ft 475 kts 137°
2026-05-07 08:45 44.58601 21.06576 35060 ft 475 kts 137°
2026-05-07 08:46 44.54129 21.13410 35067 ft 476 kts 137°
2026-05-07 08:46 44.49640 21.20232 35068 ft 476 kts 137°
2026-05-07 08:47 44.45173 21.27009 35072 ft 476 kts 137°
2026-05-07 08:47 44.40676 21.33829 35079 ft 477 kts 137°
2026-05-07 08:48 44.36178 21.40640 35082 ft 477 kts 137°
2026-05-07 08:48 44.31667 21.47443 35080 ft 478 kts 137°
2026-05-07 08:49 44.27162 21.54269 35092 ft 478 kts 137°
2026-05-07 08:49 44.22670 21.61086 35099 ft 477 kts 137°
2026-05-07 08:50 44.18175 21.67898 35085 ft 477 kts 137°
2026-05-07 08:50 44.13674 21.74682 35099 ft 477 kts 137°
2026-05-07 08:51 44.09198 21.81409 35106 ft 477 kts 137°
2026-05-07 08:51 44.04691 21.88172 35117 ft 476 kts 137°
2026-05-07 08:52 44.00188 21.94914 35097 ft 476 kts 136°
2026-05-07 08:52 43.95675 22.01656 35094 ft 477 kts 137°
2026-05-07 08:53 43.91147 22.08400 35100 ft 478 kts 137°
2026-05-07 08:53 43.86611 22.15138 35109 ft 478 kts 137°
2026-05-07 08:54 43.82069 22.21876 35118 ft 478 kts 137°
2026-05-07 08:54 43.77521 22.28597 35121 ft 478 kts 137°
2026-05-07 08:55 43.72968 22.35315 35122 ft 478 kts 137°
2026-05-07 08:55 43.68597 22.42259 35120 ft 483 kts 127°
2026-05-07 08:56 43.65393 22.50480 35106 ft 488 kts 120°
2026-05-07 08:56 43.62346 22.58812 35104 ft 489 kts 120°
2026-05-07 08:57 43.59276 22.67173 35112 ft 489 kts 120°
2026-05-07 08:57 43.56196 22.75529 35104 ft 489 kts 120°
2026-05-07 08:58 43.53108 22.83885 35105 ft 490 kts 120°
2026-05-07 08:58 43.50004 22.92249 35111 ft 490 kts 121°
2026-05-07 08:59 43.46891 23.00601 35120 ft 490 kts 121°
2026-05-07 08:59 43.43770 23.08950 35111 ft 491 kts 120°
2026-05-07 09:00 43.40645 23.17295 35125 ft 491 kts 120°
2026-05-07 09:00 43.37517 23.25638 35123 ft 491 kts 120°
2026-05-07 09:01 43.34376 23.33970 35116 ft 491 kts 120°
2026-05-07 09:01 43.31233 23.42295 35102 ft 491 kts 120°
2026-05-07 09:02 43.28076 23.50615 35118 ft 491 kts 120°
2026-05-07 09:02 43.24919 23.58930 35115 ft 491 kts 120°
2026-05-07 09:03 43.21752 23.67248 35104 ft 492 kts 120°
2026-05-07 09:03 43.18582 23.75548 35100 ft 492 kts 120°
2026-05-07 09:04 43.15415 23.83814 35096 ft 493 kts 120°
2026-05-07 09:04 43.12223 23.92115 35100 ft 493 kts 120°
2026-05-07 09:05 43.09012 24.00422 35105 ft 494 kts 120°
2026-05-07 09:05 43.05796 24.08725 35100 ft 494 kts 120°
2026-05-07 09:06 43.02577 24.17044 35106 ft 495 kts 120°
2026-05-07 09:06 42.99351 24.25351 35100 ft 495 kts 119°
2026-05-07 09:07 42.96112 24.33656 35104 ft 496 kts 119°
2026-05-07 09:07 42.92859 24.41950 35117 ft 496 kts 120°
2026-05-07 09:08 42.89599 24.50249 35110 ft 496 kts 120°
2026-05-07 09:08 42.86340 24.58542 35106 ft 496 kts 119°
2026-05-07 09:09 42.83070 24.66829 35103 ft 496 kts 119°
2026-05-07 09:09 42.79799 24.75104 35112 ft 496 kts 120°
2026-05-07 09:10 42.76527 24.83368 35111 ft 496 kts 119°
2026-05-07 09:10 42.73242 24.91635 35117 ft 497 kts 119°
2026-05-07 09:11 42.69961 24.99843 35116 ft 497 kts 119°
2026-05-07 09:11 42.66653 25.08093 35120 ft 497 kts 119°
2026-05-07 09:12 42.63340 25.16338 35115 ft 497 kts 119°
2026-05-07 09:12 42.60024 25.24585 35113 ft 497 kts 119°
2026-05-07 09:13 42.57265 25.31428 35118 ft 497 kts 119°
2026-05-07 09:13 42.53931 25.39665 35117 ft 498 kts 119°
2026-05-07 09:14 42.50616 25.47831 35098 ft 485 kts 119°
2026-05-07 09:14 42.47394 25.55756 35098 ft 478 kts 119°
2026-05-07 09:15 42.44182 25.63621 35106 ft 477 kts 120°
2026-05-07 09:15 42.40967 25.71483 35115 ft 478 kts 119°
2026-05-07 09:16 42.37744 25.79338 35110 ft 477 kts 120°
2026-05-07 09:16 42.34518 25.87186 35121 ft 478 kts 120°
2026-05-07 09:17 42.31305 25.94984 35126 ft 478 kts 119°
2026-05-07 09:17 42.28067 26.02831 35129 ft 478 kts 119°
2026-05-07 09:18 42.24815 26.10681 35135 ft 479 kts 119°
2026-05-07 09:18 42.21557 26.18513 35137 ft 479 kts 119°
2026-05-07 09:19 42.18288 26.26346 35135 ft 479 kts 119°
2026-05-07 09:19 42.15010 26.34174 35133 ft 480 kts 119°
2026-05-07 09:20 42.11730 26.42009 35133 ft 480 kts 119°
2026-05-07 09:20 42.10084 26.45933 35027 ft 486 kts 119°
2026-05-07 09:20 42.08396 26.49941 34787 ft 495 kts 119°
2026-05-07 09:21 42.06695 26.53976 34546 ft 496 kts 119°
2026-05-07 09:21 42.04996 26.58009 34301 ft 495 kts 118°
2026-05-07 09:21 42.03294 26.62052 33378 ft 499 kts 118°
2026-05-07 09:21 42.01589 26.66088 32815 ft 493 kts 118°
2026-05-07 09:22 41.99888 26.70097 32016 ft 493 kts 119°
2026-05-07 09:22 41.98196 26.74076 31493 ft 488 kts 118°
2026-05-07 09:22 41.96513 26.78022 30920 ft 484 kts 118°
2026-05-07 09:22 41.94814 26.81899 30528 ft 477 kts 120°
2026-05-07 09:23 41.93105 26.85683 30095 ft 471 kts 120°
2026-05-07 09:23 41.91392 26.89409 29643 ft 466 kts 121°
2026-05-07 09:23 41.89494 26.92839 29359 ft 463 kts 129°
2026-05-07 09:23 41.87456 26.96154 28912 ft 458 kts 129°
2026-05-07 09:24 41.85431 26.99439 28315 ft 456 kts 129°
2026-05-07 09:24 41.83409 27.02715 27682 ft 454 kts 129°
2026-05-07 09:24 41.81403 27.05968 27165 ft 450 kts 129°
2026-05-07 09:24 41.79414 27.09187 26633 ft 447 kts 129°
2026-05-07 09:25 41.77440 27.12375 26120 ft 443 kts 129°
2026-05-07 09:25 41.75479 27.15543 25616 ft 440 kts 129°
2026-05-07 09:25 41.73534 27.18679 25121 ft 436 kts 129°
2026-05-07 09:25 41.71599 27.21788 24642 ft 433 kts 129°
2026-05-07 09:26 41.69677 27.24873 24163 ft 430 kts 129°
2026-05-07 09:26 41.67768 27.27939 23718 ft 427 kts 129°
2026-05-07 09:26 41.65876 27.30983 23183 ft 423 kts 129°
2026-05-07 09:26 41.64001 27.33991 22727 ft 419 kts 129°
2026-05-07 09:27 41.62144 27.36963 22273 ft 414 kts 129°
2026-05-07 09:27 41.60309 27.39907 21805 ft 410 kts 129°
2026-05-07 09:27 41.56696 27.45699 20862 ft 402 kts 129°
2026-05-07 09:28 41.54911 27.48545 20395 ft 398 kts 129°
2026-05-07 09:28 41.53144 27.51357 19911 ft 394 kts 129°
2026-05-07 09:28 41.51391 27.54143 19450 ft 390 kts 129°
2026-05-07 09:28 41.49658 27.56898 18952 ft 386 kts 129°
2026-05-07 09:29 41.47960 27.59589 18480 ft 382 kts 129°
2026-05-07 09:29 41.46257 27.62285 17954 ft 378 kts 129°
2026-05-07 09:29 41.44570 27.64961 17480 ft 373 kts 129°
2026-05-07 09:29 41.42913 27.67598 17016 ft 369 kts 129°
2026-05-07 09:30 41.41273 27.70210 16548 ft 366 kts 129°
2026-05-07 09:30 41.39644 27.72801 16083 ft 363 kts 129°
2026-05-07 09:30 41.38025 27.75365 15631 ft 360 kts 129°
2026-05-07 09:30 41.36417 27.77903 15174 ft 357 kts 129°
2026-05-07 09:31 41.34819 27.80422 14717 ft 355 kts 129°
2026-05-07 09:31 41.33231 27.82922 14266 ft 352 kts 129°
2026-05-07 09:31 41.31656 27.85397 13790 ft 349 kts 129°
2026-05-07 09:31 41.30094 27.87853 13327 ft 347 kts 129°
2026-05-07 09:32 41.28544 27.90295 12882 ft 345 kts 129°
2026-05-07 09:32 41.27003 27.92725 12440 ft 342 kts 129°
2026-05-07 09:32 41.25473 27.95135 11999 ft 340 kts 129°
2026-05-07 09:32 41.23948 27.97531 11557 ft 338 kts 129°
2026-05-07 09:33 41.22433 27.99905 11127 ft 336 kts 129°
2026-05-07 09:33 41.20923 28.02268 10692 ft 334 kts 129°
2026-05-07 09:33 41.19423 28.04609 10290 ft 331 kts 130°
2026-05-07 09:33 41.17973 28.06871 10140 ft 312 kts 129°
2026-05-07 09:34 41.16588 28.09038 9770 ft 303 kts 129°
2026-05-07 09:34 41.15253 28.11129 9645 ft 301 kts 129°
2026-05-07 09:34 41.13895 28.13256 9425 ft 303 kts 129°
2026-05-07 09:34 41.12529 28.15391 9001 ft 302 kts 130°
2026-05-07 09:35 41.11169 28.17516 8564 ft 302 kts 130°
2026-05-07 09:35 41.09809 28.19638 8164 ft 301 kts 130°
2026-05-07 09:35 41.08453 28.21749 7738 ft 300 kts 130°
2026-05-07 09:35 41.07108 28.23845 7341 ft 299 kts 130°
2026-05-07 09:36 41.05764 28.25938 6999 ft 296 kts 130°
2026-05-07 09:36 41.04434 28.28005 6586 ft 293 kts 131°
2026-05-07 09:36 41.03110 28.30061 5983 ft 292 kts 131°
2026-05-07 09:36 41.01804 28.32088 5511 ft 287 kts 131°
2026-05-07 09:37 41.00522 28.34074 5148 ft 278 kts 131°
2026-05-07 09:37 40.99300 28.35967 5000 ft 262 kts 131°
2026-05-07 09:37 40.98147 28.37752 5005 ft 252 kts 131°
2026-05-07 09:37 40.97137 28.39630 5008 ft 252 kts 120°
2026-05-07 09:38 40.96276 28.41643 5010 ft 251 kts 120°
2026-05-07 09:38 40.95410 28.43654 5012 ft 251 kts 120°
2026-05-07 09:38 40.94544 28.45661 5012 ft 251 kts 120°
2026-05-07 09:38 40.93678 28.47666 5031 ft 252 kts 120°
2026-05-07 09:39 40.92809 28.49671 5013 ft 252 kts 120°
2026-05-07 09:39 40.91936 28.51689 5012 ft 253 kts 120°
2026-05-07 09:39 40.91064 28.53712 5012 ft 253 kts 120°
2026-05-07 09:39 40.90193 28.55737 5013 ft 253 kts 119°
2026-05-07 09:40 40.89604 28.57889 5012 ft 253 kts 99°
2026-05-07 09:40 40.89583 28.60199 5012 ft 252 kts 79°
2026-05-07 09:40 40.90072 28.62405 5013 ft 250 kts 69°
2026-05-07 09:40 40.90639 28.64570 5011 ft 249 kts 69°
2026-05-07 09:41 40.91204 28.66729 5011 ft 248 kts 66°
2026-05-07 09:41 40.92070 28.68680 5010 ft 245 kts 47°
2026-05-07 09:41 40.93327 28.70168 5010 ft 242 kts 30°
2026-05-07 09:41 40.94788 28.71255 5011 ft 241 kts 25°
2026-05-07 09:42 40.96257 28.72328 5011 ft 241 kts 26°
2026-05-07 09:42 40.97749 28.73133 5009 ft 223 kts
2026-05-07 09:42 40.99257 28.73301 5000 ft 215 kts 356°
2026-05-07 09:42 41.00756 28.73269 5009 ft 216 kts 356°
2026-05-07 09:43 41.02230 28.73240 4922 ft 208 kts 356°
2026-05-07 09:43 41.03687 28.73211 4671 ft 211 kts 355°
2026-05-07 09:43 41.05154 28.73183 4392 ft 211 kts 356°
2026-05-07 09:43 41.06600 28.73156 4113 ft 204 kts 356°
2026-05-07 09:44 41.07989 28.73130 3848 ft 196 kts 355°
2026-05-07 09:44 41.09332 28.73104 3591 ft 190 kts 355°
2026-05-07 09:44 41.10644 28.73078 3356 ft 187 kts 355°
2026-05-07 09:44 41.11917 28.73054 3106 ft 180 kts 355°
2026-05-07 09:45 41.13167 28.73030 2889 ft 180 kts 355°
2026-05-07 09:45 41.14396 28.73005 2631 ft 178 kts 356°
2026-05-07 09:45 41.15633 28.72986 2413 ft 177 kts 357°
2026-05-07 09:45 41.16867 28.72981 2265 ft 178 kts 358°
2026-05-07 09:46 41.18082 28.72989 1974 ft 166 kts 356°
2026-05-07 09:46 41.19196 28.72948 1772 ft 157 kts 355°
2026-05-07 09:46 41.20280 28.72914 1474 ft 154 kts 356°
2026-05-07 09:46 41.21328 28.72888 1303 ft 149 kts 357°
2026-05-07 09:47 41.22363 28.72877 1163 ft 149 kts 358°
2026-05-07 09:47 41.23390 28.72857 997 ft 147 kts 358°
2026-05-07 09:47 41.24401 28.72824 794 ft 145 kts 359°
2026-05-07 09:47 41.25389 28.72785 582 ft 140 kts
2026-05-07 09:48 41.26355 28.72768 393 ft 138 kts
2026-05-07 09:48 41.27283 28.72757 333 ft 122 kts
2026-05-07 09:48 41.27857 28.72747 334 ft 47 kts 360°
2026-05-07 09:48 41.28060 28.72827 334 ft 24 kts 28°
2026-05-07 09:49 41.28120 28.72932 333 ft 13 kts 111°
2026-05-07 09:49 41.28038 28.72964 331 ft 13 kts 180°
2026-05-07 09:49 41.27939 28.72965 334 ft 15 kts 179°
2026-05-07 09:49 41.27830 28.72967 331 ft 16 kts 179°
2026-05-07 09:50 41.27723 28.72971 330 ft 14 kts 178°
2026-05-07 09:50 41.27619 28.72974 333 ft 16 kts 178°
2026-05-07 09:50 41.27504 28.72976 331 ft 17 kts 180°
2026-05-07 09:50 41.27378 28.72976 332 ft 19 kts 179°
2026-05-07 09:51 41.27243 28.72983 332 ft 20 kts 178°
2026-05-07 09:51 41.27139 28.72984 330 ft 7 kts 179°
2026-05-07 09:51 41.27088 28.72985 334 ft 8 kts 179°
2026-05-07 09:51 41.27024 28.72987 333 ft 10 kts 179°
2026-05-07 09:52 41.26948 28.72989 333 ft 12 kts 179°
2026-05-07 09:52 41.26873 28.73025 334 ft 12 kts 120°
2026-05-07 09:52 41.26866 28.73144 332 ft 14 kts 89°
2026-05-07 09:52 41.26868 28.73279 333 ft 15 kts 89°
2026-05-07 09:53 41.26870 28.73430 331 ft 17 kts 89°
2026-05-07 09:53 41.26873 28.73595 332 ft 19 kts 89°
2026-05-07 09:53 41.26877 28.73768 334 ft 15 kts 88°
2026-05-07 09:53 41.26828 28.73870 333 ft 14 kts 175°
2026-05-07 09:54 41.26736 28.73854 330 ft 11 kts 228°
2026-05-07 09:54 41.26735 28.73804 333 ft 4 kts 272°
2026-05-07 09:54 41.26734 28.73762 330 ft 1 kts 269°
2026-05-07 09:54 41.26734 28.73758 333 ft 0 kts 269°